Date String (YYYY-MM-DD hh:mm:ss) UTC,Instrument flags,absolute air pressure of the measurement (hPa),sample flow rate (lpm),inlet stack bypass flow (lpm),air temperature of the measurement (°C),ambient temperature measured by the external sensor (°C),aerosol sample conditioner tube jacket temperature (°C),OPC LED temperature (°C),internal box temperature (°C),relative humidity of the measurement (%),span deviation,mass concentration of particles derived from Lorenz-Mie calculation of OPC scattering (μg/m³),mass concentration of particles derived from Lorenz-Mie calculation of OPC scattering (μg/m³),mass concentration of particles derived from Lorenz-Mie calculation of OPC scattering (μg/m³)
DateTimeUTC,F1_M11,P_M11,Q1_M11,Q2_M11,T1_M11,T2_M11,T3_M11,T4_M11,T5_M11,U1_M11,ZSPAN_M11,X0_M11,X2_M11,X1_M11
2024-03-03 20:00:00,SystemResetWarning,0815.4,5.00,000.00,018.4,017.7,000.0,026.9,020.0,11.5,0000.0,0002.00,0000.44,0000.22
2024-03-03 20:01:00,SystemResetWarning,0815.5,5.00,000.00,018.4,017.7,000.0,026.8,020.0,11.8,0000.0,0002.27,0000.44,0000.22
2024-03-03 20:02:00,SystemResetWarning,0815.6,5.00,000.00,018.4,017.7,000.0,026.8,020.0,11.9,0000.0,0002.33,0000.44,0000.21
2024-03-03 20:03:00,SystemResetWarning,0815.5,5.00,000.00,018.4,017.7,000.0,026.8,020.0,11.9,0000.0,0002.23,0000.42,0000.21
2024-03-03 20:04:00,SystemResetWarning,0815.5,5.01,000.00,018.4,017.7,000.0,026.8,020.0,12.0,0000.0,0002.19,0000.43,0000.21
2024-03-03 20:05:00,SystemResetWarning,0815.5,5.01,000.00,018.4,017.7,000.0,026.8,020.0,11.7,0000.0,0002.40,0000.42,0000.21
2024-03-03 20:06:00,SystemResetWarning,0815.5,4.98,000.00,018.4,017.7,000.0,026.8,020.0,11.9,0000.0,0002.50,0000.41,0000.20
2024-03-03 20:07:00,SystemResetWarning,0815.6,4.99,000.00,018.4,017.7,000.0,026.8,020.0,12.3,0000.0,0002.50,0000.42,0000.21
2024-03-03 20:08:00,SystemResetWarning,0815.6,5.01,000.00,018.4,017.7,000.0,026.8,020.0,12.5,0000.0,0003.39,0000.45,0000.21
2024-03-03 20:09:00,SystemResetWarning,0815.7,5.00,000.00,018.4,017.7,000.0,026.8,020.0,11.5,0000.0,0003.65,0000.46,0000.20
2024-03-03 20:10:00,SystemResetWarning,0815.6,5.01,000.00,018.4,017.7,000.0,026.8,020.0,11.6,0000.0,0003.80,0000.48,0000.20
2024-03-03 20:11:00,SystemResetWarning,0815.6,5.01,000.00,018.4,017.7,000.0,026.9,020.0,11.7,0000.0,0003.36,0000.51,0000.20
2024-03-03 20:12:00,SystemResetWarning,0815.6,4.99,000.00,018.4,017.7,000.0,026.9,020.0,12.0,0000.0,0003.15,0000.53,0000.20
2024-03-03 20:13:00,SystemResetWarning,0815.7,5.00,000.00,018.4,017.7,000.0,026.9,020.0,12.4,0000.0,0003.17,0000.55,0000.20
2024-03-03 20:14:00,SystemResetWarning,0815.7,5.00,000.00,018.4,017.7,000.0,026.8,020.0,12.4,0000.0,0003.32,0000.58,0000.20
2024-03-03 20:15:00,SystemResetWarning,0815.6,5.01,000.00,018.4,017.7,000.0,026.8,020.0,11.5,0000.0,0003.65,0000.61,0000.20
2024-03-03 20:16:00,SystemResetWarning,0815.6,5.00,000.00,018.4,017.7,000.0,026.8,020.0,11.7,0000.0,0003.91,0000.61,0000.20
2024-03-03 20:17:00,SystemResetWarning,0815.7,5.00,000.00,018.4,017.7,000.0,026.8,020.0,12.0,0000.0,0003.76,0000.59,0000.20
2024-03-03 20:18:00,SystemResetWarning,0815.7,5.00,000.00,018.4,017.7,000.0,026.8,020.0,11.7,0000.0,0003.74,0000.58,0000.21
2024-03-03 20:19:00,SystemResetWarning,0815.6,5.00,000.00,018.4,017.7,000.0,026.8,020.0,11.5,0000.0,0002.90,0000.58,0000.21
2024-03-03 20:20:00,SystemResetWarning,0815.6,5.00,000.00,018.4,017.7,000.0,026.8,020.0,11.7,0000.0,0002.81,0000.62,0000.23
2024-03-03 20:21:00,SystemResetWarning,0815.6,5.00,000.00,018.4,017.7,000.0,026.8,020.0,11.8,0000.0,0002.65,0000.62,0000.23
2024-03-03 20:22:00,SystemResetWarning,0815.6,4.99,000.00,018.4,017.7,000.0,026.8,020.0,12.2,0000.0,0002.17,0000.59,0000.24
2024-03-03 20:23:00,SystemResetWarning,0815.7,4.99,000.00,018.4,017.7,000.0,026.8,020.0,11.8,0000.0,0002.19,0000.61,0000.24
2024-03-03 20:24:00,SystemResetWarning,0815.6,4.99,000.00,018.4,017.7,000.0,026.8,020.0,11.8,0000.0,0002.15,0000.61,0000.24
2024-03-03 20:25:00,SystemResetWarning,0815.6,5.00,000.00,018.4,017.7,000.0,026.8,020.0,11.9,0000.0,0002.13,0000.61,0000.24
2024-03-03 20:26:00,SystemResetWarning,0815.6,5.00,000.00,018.4,017.7,000.0,026.8,020.0,12.3,0000.0,0001.81,0000.56,0000.24
2024-03-03 20:27:00,SystemResetWarning,0815.5,5.00,000.00,018.4,017.6,000.0,026.8,020.0,12.1,0000.0,0002.13,0000.55,0000.24
2024-03-03 20:28:00,SystemResetWarning,0815.5,5.00,000.00,018.4,017.6,000.0,026.8,020.0,12.3,0000.0,0002.54,0000.58,0000.25
2024-03-03 20:29:00,SystemResetWarning,0815.5,5.00,000.00,018.4,017.6,000.0,026.7,020.0,12.5,0000.0,0002.58,0000.57,0000.24
2024-03-03 20:30:00,SystemResetWarning,0815.5,5.01,000.00,018.4,017.6,000.0,026.8,020.0,12.5,0000.0,0002.60,0000.58,0000.24
2024-03-03 20:31:00,SystemResetWarning,0815.4,5.01,000.00,018.4,017.6,000.0,026.8,020.0,12.8,0000.0,0002.66,0000.58,0000.24
2024-03-03 20:32:00,SystemResetWarning,0815.4,5.01,000.00,018.4,017.7,000.0,026.8,020.0,12.6,0000.0,0002.76,0000.59,0000.23
2024-03-03 20:33:00,SystemResetWarning,0815.5,5.00,000.00,018.4,017.6,000.0,026.8,020.0,12.9,0000.0,0002.88,0000.63,0000.23
2024-03-03 20:34:00,SystemResetWarning,0815.5,4.99,000.00,018.4,017.6,000.0,026.8,020.0,12.9,0000.0,0002.89,0000.64,0000.24
2024-03-03 20:35:00,SystemResetWarning,0815.4,4.99,000.00,018.4,017.6,000.0,026.8,020.0,13.2,0000.0,0002.90,0000.64,0000.24
2024-03-03 20:36:00,SystemResetWarning,0815.3,4.99,000.00,018.4,017.7,000.0,026.8,020.0,13.2,0000.0,0002.78,0000.61,0000.24
2024-03-03 20:37:00,SystemResetWarning,0815.3,5.01,000.00,018.4,017.7,000.0,026.7,020.0,13.4,0000.0,0002.94,0000.65,0000.23
2024-03-03 20:38:00,SystemResetWarning,0815.2,5.00,000.00,018.4,017.7,000.0,026.8,020.0,13.4,0000.0,0001.95,0000.68,0000.24
2024-03-03 20:39:00,SystemResetWarning,0815.3,5.00,000.00,018.4,017.7,000.0,026.8,020.0,13.1,0000.0,0001.62,0000.66,0000.23
2024-03-03 20:40:00,SystemResetWarning,0815.3,4.99,000.00,018.4,017.7,000.0,026.8,020.0,13.2,0000.0,0001.52,0000.63,0000.23
2024-03-03 20:41:00,SystemResetWarning,0815.3,4.99,000.00,018.4,017.7,000.0,026.8,020.0,13.5,0000.0,0001.48,0000.61,0000.22
2024-03-03 20:42:00,SystemResetWarning,0815.2,5.00,000.00,018.4,017.7,000.0,026.8,020.0,13.7,0000.0,0001.41,0000.57,0000.22
2024-03-03 20:43:00,SystemResetWarning,0815.2,5.01,000.00,018.4,017.7,000.0,026.7,020.0,13.9,0000.0,0001.45,0000.58,0000.22
2024-03-03 20:44:00,SystemResetWarning,0815.1,5.00,000.00,018.4,017.7,000.0,026.7,020.0,14.0,0000.0,0002.15,0000.59,0000.22
2024-03-03 20:45:00,SystemResetWarning,0815.0,5.00,000.00,018.4,017.7,000.0,026.7,020.0,13.9,0000.0,0002.15,0000.56,0000.21
2024-03-03 20:46:00,SystemResetWarning,0815.1,5.00,000.00,018.4,017.7,000.0,026.7,020.0,13.8,0000.0,0003.07,0000.56,0000.21
2024-03-03 20:47:00,SystemResetWarning,0815.0,5.00,000.00,018.4,017.7,000.0,026.7,020.0,13.7,0000.0,0003.12,0000.58,0000.22
2024-03-03 20:48:00,SystemResetWarning,0815.1,5.00,000.00,018.4,017.7,000.0,026.7,020.0,13.4,0000.0,0003.00,0000.55,0000.22
2024-03-03 20:49:00,SystemResetWarning,0815.1,4.99,000.00,018.4,017.8,000.0,026.7,020.0,13.9,0000.0,0003.14,0000.52,0000.21
2024-03-03 20:50:00,SystemResetWarning,0815.1,5.01,000.00,018.4,017.8,000.0,026.7,020.0,14.1,0000.0,0003.65,0000.52,0000.21
2024-03-03 20:51:00,SystemResetWarning,0815.1,5.01,000.00,018.4,017.8,000.0,026.7,020.0,13.9,0000.0,0003.77,0000.53,0000.21
2024-03-03 20:52:00,SystemResetWarning,0815.1,5.00,000.00,018.4,017.8,000.0,026.7,020.0,14.0,0000.0,0003.77,0000.54,0000.21
2024-03-03 20:53:00,SystemResetWarning,0815.1,5.00,000.00,018.4,017.8,000.0,026.7,020.0,14.4,0000.0,0003.76,0000.55,0000.21
2024-03-03 20:54:00,SystemResetWarning,0815.1,5.00,000.00,018.4,017.8,000.0,026.7,020.0,14.3,0000.0,0003.78,0000.58,0000.22
2024-03-03 20:55:00,SystemResetWarning,0815.1,4.99,000.00,018.4,017.8,000.0,026.7,020.0,13.9,0000.0,0003.04,0000.55,0000.21
2024-03-03 20:56:00,SystemResetWarning,0815.1,5.00,000.00,018.4,017.8,000.0,026.7,020.0,13.6,0000.0,0002.97,0000.55,0000.21
2024-03-03 20:57:00,SystemResetWarning,0815.1,5.01,000.00,018.4,017.8,000.0,026.7,020.0,13.6,0000.0,0002.77,0000.54,0000.21
2024-03-03 20:58:00,SystemResetWarning,0815.2,5.01,000.00,018.4,017.8,000.0,026.7,020.0,13.5,0000.0,0002.97,0000.54,0000.20
2024-03-03 20:59:00,SystemResetWarning,0815.2,5.00,000.00,018.4,017.8,000.0,026.7,020.0,13.3,0000.0,0003.32,0000.55,0000.20
